When you browse on this site, cookies collect data to enhance your experience and personalize the content and advertising you see.
Visit our Privacy Policy to learn more. By continuing to use the site, you agree to this use of cookies and data.
  • In France
  • List of Countries
  • For 7 days
  • Water Temperature
  • Satellite Maps
  • Weather Map
  • Weather Widgets
  • user-avatar
    Login

    Hourly Weather Shkoder

    Today, 17 June, Monday

    Time Temperature Precipitation Wind Pressure Humidity
    00:00 +21°C° 0.1 mm 2 mps 738 mmHg 68%
    01:00 +21°C° 0 mm 2 mps 738 mmHg 67%
    02:00 +20°C° 0.3 mm 2 mps 738 mmHg 69%
    03:00 +20°C° 0.3 mm 2 mps 738 mmHg 71%
    04:00 +20°C° 0.3 mm 2 mps 738 mmHg 74%
    05:00 +21°C° 0 mm 2 mps 738 mmHg 72%
    06:00 +23°C° 0 mm 2 mps 738 mmHg 71%
    07:00 +25°C° 0 mm 2 mps 739 mmHg 70%
    08:00 +26°C° 0.2 mm 2 mps 739 mmHg 66%
    09:00 +27°C° 0.2 mm 2 mps 738 mmHg 62%
    10:00 +29°C° 0.2 mm 2 mps 738 mmHg 59%
    11:00 +29°C° 0.3 mm 2 mps 738 mmHg 56%
    12:00 +30°C° 0.3 mm 2 mps 738 mmHg 54%
    13:00 +30°C° 0.3 mm 2 mps 739 mmHg 51%
    14:00 +30°C° 0.1 mm 2 mps 738 mmHg 53%
    15:00 +30°C° 0.1 mm 2 mps 738 mmHg 55%
    16:00 +29°C° 0.1 mm 1 mps 738 mmHg 57%
    17:00 +28°C° 0.1 mm 1 mps 738 mmHg 62%
    18:00 +27°C° 0.1 mm 1 mps 738 mmHg 67%
    19:00 +26°C° 0.1 mm 2 mps 738 mmHg 72%
    20:00 +25°C° 0.1 mm 2 mps 738 mmHg 73%
    21:00 +24°C° 0.1 mm 2 mps 738 mmHg 75%
    22:00 +23°C° 0.1 mm 2 mps 739 mmHg 77%
    23:00 +23°C° 0.2 mm 2 mps 739 mmHg 77%

    Tomorrow, 18 June, Tuesday

    Time Temperature Precipitation Wind Pressure Humidity
    00:00 +22°C° 0.2 mm 1 mps 739 mmHg 78%
    01:00 +22°C° 0.2 mm 1 mps 739 mmHg 79%
    02:00 +22°C° 0 mm 1 mps 739 mmHg 79%
    03:00 +22°C° 0 mm 1 mps 739 mmHg 78%
    04:00 +21°C° 0 mm 1 mps 738 mmHg 78%
    05:00 +22°C° 0.1 mm 1 mps 739 mmHg 76%
    06:00 +24°C° 0.1 mm 1 mps 739 mmHg 74%
    07:00 +25°C° 0.1 mm 1 mps 739 mmHg 72%
    08:00 +26°C° 0.3 mm 1 mps 739 mmHg 68%
    09:00 +27°C° 0.3 mm 1 mps 739 mmHg 63%
    10:00 +29°C° 0.3 mm 1 mps 739 mmHg 59%
    11:00 +29°C° 0.8 mm 1 mps 739 mmHg 58%
    12:00 +29°C° 0.8 mm 1 mps 739 mmHg 57%
    13:00 +30°C° 0.8 mm 2 mps 739 mmHg 56%
    14:00 +29°C° 0.8 mm 2 mps 738 mmHg 60%
    15:00 +28°C° 0.8 mm 1 mps 738 mmHg 64%
    16:00 +28°C° 0.8 mm 1 mps 738 mmHg 68%
    17:00 +27°C° 0.2 mm 1 mps 738 mmHg 71%
    18:00 +25°C° 0.2 mm 1 mps 738 mmHg 75%
    19:00 +22°C° 0.2 mm 0 mps 738 mmHg 78%
    20:00 +24°C° 0.1 mm 1 mps 738 mmHg 78%
    21:00 +23°C° 0.1 mm 1 mps 738 mmHg 78%
    22:00 +22°C° 0.1 mm 1 mps 738 mmHg 78%
    23:00 +22°C° 0.2 mm 1 mps 738 mmHg 77%

    Day after tomorrow, 19 June, Wednesday

    Time Temperature Precipitation Wind Pressure Humidity
    00:00 +22°C° 0.2 mm 1 mps 738 mmHg 77%
    01:00 +22°C° 0.2 mm 1 mps 738 mmHg 76%
    02:00 +22°C° 0.4 mm 1 mps 738 mmHg 77%
    03:00 +21°C° 0.4 mm 1 mps 738 mmHg 78%
    04:00 +21°C° 0.4 mm 1 mps 738 mmHg 79%
    05:00 +20°C° 0 mm 0 mps 738 mmHg 76%
    06:00 +22°C° 0 mm 0 mps 738 mmHg 73%
    07:00 +23°C° 0 mm 0 mps 738 mmHg 70%
    08:00 +26°C° 0.4 mm 1 mps 738 mmHg 68%
    09:00 +27°C° 0.4 mm 1 mps 738 mmHg 65%
    10:00 +28°C° 0.4 mm 1 mps 738 mmHg 63%
    11:00 +28°C° 1 mm 2 mps 738 mmHg 64%
    12:00 +28°C° 1 mm 2 mps 738 mmHg 65%
    13:00 +28°C° 1 mm 3 mps 737 mmHg 65%
    14:00 +28°C° 1.3 mm 2 mps 737 mmHg 68%
    15:00 +27°C° 1.3 mm 2 mps 737 mmHg 70%
    16:00 +27°C° 1.3 mm 2 mps 737 mmHg 73%
    17:00 +26°C° 0.2 mm 1 mps 737 mmHg 77%
    18:00 +25°C° 0.2 mm 1 mps 737 mmHg 81%
    19:00 +24°C° 0.2 mm 1 mps 737 mmHg 85%
    20:00 +23°C° 0 mm 1 mps 737 mmHg 86%
    21:00 +22°C° 0 mm 1 mps 737 mmHg 87%
    22:00 +20°C° 0 mm 0 mps 738 mmHg 88%
    23:00 +19°C° 0 mm 0 mps 737 mmHg 87%

    20 June, Thursday

    Time Temperature Precipitation Wind Pressure Humidity
    00:00 +19°C° 0 mm 0 mps 737 mmHg 87%
    01:00 +19°C° 0 mm 0 mps 737 mmHg 86%
    02:00 +19°C° 0 mm 0 mps 737 mmHg 86%
    03:00 +18°C° 0 mm 0 mps 737 mmHg 86%
    04:00 +20°C° 0 mm 1 mps 737 mmHg 86%
    05:00 +20°C° 0 mm 0 mps 737 mmHg 82%
    06:00 +21°C° 0 mm 0 mps 738 mmHg 79%
    07:00 +23°C° 0 mm 0 mps 738 mmHg 75%
    08:00 +26°C° 0.4 mm 1 mps 738 mmHg 73%
    09:00 +27°C° 0.4 mm 1 mps 738 mmHg 70%
    10:00 +28°C° 0.4 mm 1 mps 738 mmHg 68%
    11:00 +28°C° 1.5 mm 2 mps 737 mmHg 68%
    12:00 +28°C° 1.5 mm 2 mps 737 mmHg 69%
    13:00 +28°C° 1.5 mm 2 mps 737 mmHg 69%
    14:00 +28°C° 1.2 mm 2 mps 737 mmHg 69%
    15:00 +28°C° 1.2 mm 2 mps 737 mmHg 69%
    16:00 +28°C° 1.2 mm 2 mps 737 mmHg 69%
    17:00 +27°C° 0.6 mm 1 mps 737 mmHg 74%
    18:00 +25°C° 0.6 mm 1 mps 737 mmHg 79%
    19:00 +24°C° 0.6 mm 1 mps 737 mmHg 84%
    20:00 +23°C° 0 mm 1 mps 738 mmHg 85%
    21:00 +23°C° 0 mm 1 mps 738 mmHg 85%
    22:00 +22°C° 0 mm 1 mps 738 mmHg 85%
    23:00 +20°C° 0 mm 0 mps 738 mmHg 85%

    21 June, Friday

    Time Temperature Precipitation Wind Pressure Humidity
    00:00 +20°C° 0 mm 0 mps 738 mmHg 85%
    01:00 +20°C° 0 mm 0 mps 738 mmHg 85%
    02:00 +19°C° 0 mm 0 mps 738 mmHg 85%
    03:00 +19°C° 0 mm 0 mps 738 mmHg 85%
    04:00 +19°C° 0 mm 0 mps 738 mmHg 85%
    05:00 +20°C° 0 mm 0 mps 738 mmHg 81%
    06:00 +22°C° 0 mm 0 mps 739 mmHg 78%
    07:00 +23°C° 0 mm 0 mps 739 mmHg 74%
    08:00 +24°C° 0.1 mm 0 mps 739 mmHg 71%
    09:00 +28°C° 0.1 mm 1 mps 739 mmHg 68%
    10:00 +29°C° 0.1 mm 1 mps 739 mmHg 64%
    11:00 +29°C° 0.2 mm 1 mps 739 mmHg 62%
    12:00 +30°C° 0.2 mm 1 mps 739 mmHg 60%
    13:00 +30°C° 0.2 mm 2 mps 738 mmHg 58%
    14:00 +30°C° 0.6 mm 2 mps 738 mmHg 60%
    15:00 +29°C° 0.6 mm 1 mps 738 mmHg 63%
    16:00 +29°C° 0.6 mm 1 mps 738 mmHg 66%
    17:00 +28°C° 0.3 mm 1 mps 738 mmHg 71%
    18:00 +26°C° 0.3 mm 1 mps 738 mmHg 76%
    19:00 +23°C° 0.3 mm 0 mps 738 mmHg 81%
    20:00 +23°C° 0 mm 0 mps 739 mmHg 81%
    21:00 +24°C° 0 mm 1 mps 739 mmHg 81%
    22:00 +23°C° 0 mm 1 mps 739 mmHg 81%
    23:00 +23°C° 0 mm 1 mps 739 mmHg 80%

    22 June, Saturday

    Time Temperature Precipitation Wind Pressure Humidity
    00:00 +23°C° 0 mm 1 mps 739 mmHg 79%
    01:00 +23°C° 0 mm 1 mps 739 mmHg 78%
    02:00 +22°C° 0 mm 1 mps 739 mmHg 78%
    03:00 +22°C° 0 mm 1 mps 739 mmHg 78%
    04:00 +22°C° 0 mm 1 mps 739 mmHg 78%
    05:00 +23°C° 0 mm 1 mps 739 mmHg 74%
    06:00 +25°C° 0 mm 1 mps 739 mmHg 71%
    07:00 +27°C° 0 mm 1 mps 740 mmHg 68%
    08:00 +28°C° 0 mm 1 mps 740 mmHg 65%
    09:00 +29°C° 0 mm 1 mps 740 mmHg 61%
    10:00 +30°C° 0 mm 1 mps 740 mmHg 57%
    11:00 +31°C° 0 mm 1 mps 740 mmHg 55%
    12:00 +32°C° 0 mm 1 mps 740 mmHg 54%
    13:00 +32°C° 0 mm 2 mps 740 mmHg 52%
    14:00 +32°C° 0 mm 1 mps 739 mmHg 52%
    15:00 +32°C° 0 mm 1 mps 739 mmHg 52%
    16:00 +32°C° 0 mm 1 mps 739 mmHg 53%
    17:00 +30°C° 0 mm 1 mps 739 mmHg 60%
    18:00 +28°C° 0 mm 1 mps 739 mmHg 67%
    19:00 +25°C° 0 mm 0 mps 739 mmHg 75%
    20:00 +26°C° 0 mm 1 mps 739 mmHg 75%
    21:00 +25°C° 0 mm 1 mps 739 mmHg 76%
    22:00 +25°C° 0 mm 1 mps 740 mmHg 77%
    23:00 +25°C° 0 mm 1 mps 739 mmHg 76%
    Show more